This is the latest recevied weather packets stored in our database for station/object KD8PH. If no packets are shown the sender has not sent any weather packets the latest 10 day(s).
| Time | Temp. | Humidity | Pressure | Rain* | Wind** | Luminosity | Snow |
|---|---|---|---|---|---|---|---|
| 1777712742 | 12.78° C | 56% | 1012.8 hPa | 0 mm | - | - | - |
| 1777712138 | 12.78° C | 53% | 1012.9 hPa | 0 mm | - | - | - |
| 1777711545 | 13.33° C | 53% | 1012.9 hPa | 0 mm | - | - | - |
| 1777710937 | 13.33° C | 53% | 1012.2 hPa | 0 mm | - | - | - |
| 1777710341 | 13.33° C | 54% | 1012.2 hPa | 0 mm | - | - | - |
| 1777709737 | 13.33° C | 52% | 1012.1 hPa | 0 mm | - | - | - |
| 1777709151 | 13.33° C | 52% | 1012.4 hPa | 0 mm | - | - | - |
| 1777708555 | 13.33° C | 53% | 1012.2 hPa | 0 mm | - | - | - |
| 1777707957 | 13.33° C | 53% | 1012.4 hPa | 0 mm | - | - | - |
| 1777707343 | 13.89° C | 51% | 1012.5 hPa | 0 mm | - | - | - |
| 1777706756 | 13.89° C | 50% | 1012.6 hPa | 0.25 mm | - | - | - |
| 1777706151 | 13.89° C | 51% | 1012.7 hPa | 0.25 mm | - | - | - |
| 1777705538 | 13.89° C | 55% | 1013.2 hPa | 0.25 mm | - | - | - |
| 1777704951 | 13.89° C | 51% | 1013.1 hPa | 0.25 mm | - | - | - |
| 1777704349 | 13.89° C | 50% | 1013.1 hPa | 0.25 mm | - | - | - |
| 1777703743 | 13.89° C | 50% | 1013.1 hPa | 0.25 mm | - | - | - |
| 1777703147 | 14.44° C | 51% | 1013.3 hPa | 0 mm | - | - | - |
| 1777702539 | 14.44° C | 52% | 1013.5 hPa | 0 mm | - | - | - |
| 1777701941 | 14.44° C | 53% | 1013.4 hPa | 0 mm | - | - | - |
| 1777701350 | 14.44° C | 53% | 1013.1 hPa | 0 mm | - | - | - |
| 1777700738 | 14.44° C | 54% | 1013.2 hPa | 0 mm | - | - | - |
| 1777700142 | 14.44° C | 55% | 1013.1 hPa | 0 mm | - | - | - |
| 1777699540 | 14.44° C | 55% | 1013.3 hPa | 0 mm | - | - | - |
| 1777698938 | 15° C | 60% | 1013.1 hPa | 0 mm | - | - | - |
| 1777698358 | 15° C | 57% | 1012.9 hPa | 0.25 mm | - | - | - |
* Rain latest hour (hover to see other rain measurements)
** Current wind speed in m/s (hover to see current wind gust speed)